TimeMST,TemperatureF,Dew PointF,Humidity,Sea Level PressureIn,VisibilityMPH,Wind Direction,Wind SpeedMPH,Gust SpeedMPH,PrecipitationIn,Events,Conditions,WindDirDegrees,DateUTC
12:53 AM,23.0,16.0,74,30.58,10.0,WNW,3.5,-,N/A,,Clear,300,2012-11-23 07:53:00
1:53 AM,24.1,17.1,75,30.58,10.0,Calm,Calm,-,N/A,,Clear,0,2012-11-23 08:53:00
2:53 AM,23.0,17.1,78,30.56,10.0,Calm,Calm,-,N/A,,Clear,0,2012-11-23 09:53:00
3:53 AM,21.0,17.1,85,30.56,10.0,Calm,Calm,-,N/A,,Clear,0,2012-11-23 10:53:00
4:53 AM,23.0,18.0,81,30.53,10.0,Calm,Calm,-,N/A,,Clear,0,2012-11-23 11:53:00
5:53 AM,24.1,18.0,77,30.52,10.0,West,3.5,-,N/A,,Clear,260,2012-11-23 12:53:00
6:53 AM,25.0,18.0,75,30.51,10.0,West,4.6,-,N/A,,Partly Cloudy,260,2012-11-23 13:53:00
7:53 AM,26.1,18.0,71,30.50,10.0,Calm,Calm,-,N/A,,Mostly Cloudy,0,2012-11-23 14:53:00
8:53 AM,26.1,18.0,71,30.50,10.0,West,3.5,-,N/A,,Clear,260,2012-11-23 15:53:00
9:53 AM,28.9,18.0,64,30.48,10.0,West,4.6,-,N/A,,Clear,280,2012-11-23 16:53:00
10:53 AM,30.0,18.0,61,30.45,10.0,NW,3.5,-,N/A,,Clear,320,2012-11-23 17:53:00
11:53 AM,35.1,21.0,57,30.40,10.0,Calm,Calm,-,N/A,,Clear,0,2012-11-23 18:53:00
12:53 PM,37.0,19.0,48,30.35,10.0,Calm,Calm,-,N/A,,Clear,0,2012-11-23 19:53:00
1:53 PM,39.9,19.0,43,30.32,10.0,Variable,3.5,-,N/A,,Clear,0,2012-11-23 20:53:00
2:53 PM,41.0,19.0,41,30.29,10.0,Calm,Calm,-,N/A,,Clear,0,2012-11-23 21:53:00
3:53 PM,39.9,19.9,45,30.29,10.0,NW,3.5,-,N/A,,Clear,310,2012-11-23 22:53:00
4:53 PM,37.0,21.9,54,30.29,10.0,Calm,Calm,-,N/A,,Clear,0,2012-11-23 23:53:00
5:53 PM,35.1,21.9,59,30.28,10.0,Calm,Calm,-,N/A,,Clear,0,2012-11-24 00:53:00
6:53 PM,34.0,23.0,64,30.27,10.0,SW,4.6,-,N/A,,Clear,230,2012-11-24 01:53:00
7:53 PM,30.9,23.0,72,30.26,10.0,Calm,Calm,-,N/A,,Clear,0,2012-11-24 02:53:00
8:53 PM,28.9,23.0,78,30.25,10.0,NW,3.5,-,N/A,,Clear,310,2012-11-24 03:53:00
9:53 PM,30.9,23.0,72,30.23,10.0,SSW,3.5,-,N/A,,Partly Cloudy,210,2012-11-24 04:53:00
10:53 PM,28.9,23.0,78,30.22,10.0,Calm,Calm,-,N/A,,Clear,0,2012-11-24 05:53:00
11:53 PM,27.0,21.9,81,30.18,10.0,Calm,Calm,-,N/A,,Clear,0,2012-11-24 06:53:00